User: anonymous   Login
Location: Voyageurs National Park
(48.5020°N, 92.9292°W)
Time: 03:49:26
(UTC-06:00)
Language:

Terra - Orbit

View from above orbital plane
View from above orbital plane
View from above satellite
View from above satellite

Ground track
Ground track

The orbit data is extracted from the following two-line orbital elements,

1 25994U 99068A   17019.80992341 -.00000134  00000-0 -19729-4 0  9997
2 25994  98.1991  96.9510 0000855  91.4347 268.6923 14.57121766909064
Epoch (UTC): 19 January 2017 19:26:17
Eccentricity: 0.0000855
inclination: 98.1991°
perigee height: 702 km
apogee height: 703 km
right ascension of ascending node: 96.9510°
argument of perigee: 91.4347°
revolutions per day: 14.57121766
mean anomaly at epoch: 268.6923°
orbit number at epoch: 90906

The dashed part of the orbit path shows where the satellite is in the earth's shadow,  

DLR